Location: Unspecified
(0.0000°N, 0.0000°E)
Time: 22:43:46
(UTC+00:00)

Explorer 27 - Pass Details

Date: 20 May 2026
Orbit: 932 x 1295 km, 41.2° (Epoch: 7 June)

Event Time Altitude Azimuth Distance (km) Brightness Sun altitude
Rises 04:04:35 0° 332° (NNW) 3,587 10.9 -26.2°
Reaches altitude 10° 04:07:29 10° 342° (NNW) 2,628 10.3 -25.5°
Maximum altitude 04:12:55 31° 43° (NE) 1,561 9.6 -24.2°
Drops below altitude 10° 04:18:24 10° 104° (ESE) 2,666 11.0 -23.0°
Sets 04:21:21 0° 114° (ESE) 3,646 11.7 -22.3°
